Location: Piolenc
(44.1794°N, 4.7641°E)
Time: 01:08:00
(UTC+00:00)

Daily predictions for brighter satellites

Satellite Brightness Start Highest point End
(mag) Time Altitude Azimuth Time Altitude Azimuth Time Altitude Azimuth
USA 267 4.5 03:25:43 10° SE 03:29:01 33° SE 03:29:01 33° SE
Cosmos 2278 Rocket 4.2 03:36:40 21° SE 03:36:40 21° SE 03:38:27 10° SE
Cosmos 2219 Rocket 4.5 03:41:52 15° NNE 03:41:52 15° NNE 03:42:48 10° NNE
Cosmos 2237 Rocket 3.5 03:43:07 36° ENE 03:43:07 36° ENE 03:46:49 10° NE
BREEZE-M DEB (TANK) 4.1 03:55:50 69° NW 03:56:44 76° NNE 04:01:16 10° ESE
Cosmos 2333 Rocket 4.3 04:04:35 16° N 04:04:35 16° N 04:05:50 10° NNE
Lacrosse 4 Rocket 3.5 04:04:26 26° ENE 04:04:26 26° ENE 04:06:52 10° NE
Cosmos 1464 Rocket 3.9 04:13:47 72° SSE 04:14:23 80° E 04:20:35 10° N
Gbstr 26 Del rocket 4.2 04:13:50 74° SW 04:14:37 86° SSE 04:22:46 10° ENE
Cosmos 841 Rocket 4.4 04:16:53 40° NNE 04:16:53 40° NNE 04:20:09 10° NNE
Cosmos 1980 4.1 04:17:06 53° NNE 04:17:06 53° NNE 04:21:23 10° NNE
Meteor 1-21 Rocket 4.5 04:17:53 29° N 04:20:53 69° ENE 04:26:43 10° SSE
COSMOS 2428 4.4 04:25:09 21° N 04:25:09 21° N 04:27:13 10° N
Cosmos 1072 Rocket 4.3 04:22:08 83° WNW 04:22:08 83° WNW 04:28:28 10° N
FALCON 9 R/B 4.1 04:24:54 15° S 04:24:54 15° S 04:26:06 10° S
Atlas Centaur 2 4.0 04:26:51 26° SSW 04:28:00 27° S 04:34:24 10° SE
ATLAS CENTAUR R/B 3.1 04:31:44 25° NE 04:31:44 25° NE 04:33:24 10° NE
METEOR-M 4.0 04:28:55 10° NNE 04:34:18 85° WNW 04:34:33 81° SW
Lacrosse 5 rocket 3.6 04:40:11 14° SSE 04:40:11 14° SSE 04:40:50 10° SSE
Cosmos 2084 Rocket 4.0 04:37:18 55° NE 04:37:24 55° NE 04:41:49 10° SE
Cosmos 1340 4.0 04:42:00 32° SSE 04:42:00 32° SSE 04:44:10 10° SSE
Cosmos 372 Rocket 3.8 04:40:33 80° WNW 04:40:46 83° WSW 04:45:59 10° SSE
ALOS 4.4 04:37:03 10° N 04:37:53 15° N 04:37:53 15° N
USA 215 4.0 04:36:31 10° NE 04:42:16 35° NNW 04:43:15 33° NNW
Cosmos 1602 Rocket 4.1 04:40:25 22° N 04:43:12 58° E 04:47:36 10° SSE
USA 307 3.1 04:44:43 65° ENE 04:44:43 65° ENE 04:48:22 10° NE
ADEOS 3.4 04:39:26 10° NNE 04:44:41 84° WNW 04:47:41 26° SSW
NOSS 0 Rocket 4.2 04:45:41 47° NW 04:45:41 47° NW 04:51:09 10° NNE
Cosmos 1328 4.4 04:46:59 33° NNE 04:48:25 53° E 04:52:13 10° SSE
Nadezhda 4 Rocket 3.8 04:43:19 10° N 04:49:26 80° W 04:55:33 10° S
USA 305 2.9 04:50:49 70° NNE 04:50:49 70° NNE 04:54:40 10° NE
USA 308 2.8 04:53:18 78° N 04:53:18 78° N 04:57:25 10° NE
Cosmos 1400 Rocket 2.8 04:53:19 84° SSE 04:53:26 87° E 04:57:36 10° N
SL-4 R/B 2.3 04:55:30 51° NNE 04:55:30 51° NNE 04:58:46 10° NE
FALCON 9 DEB 4.5 04:55:02 33° SE 04:55:02 33° SE 04:57:47 10° ENE
Cosmos 2034 Rocket 3.9 04:49:38 10° SSW 04:56:00 71° W 05:02:21 10° N
Cosmos 1943 Rocket 3.2 04:51:10 11° NNW 04:56:25 44° ENE 05:01:48 10° SE
Meteor 1-16 Rocket 4.2 04:51:03 10° SSW 04:56:58 78° W 05:02:56 10° N
Cosmos 1570 Rocket 4.1 04:57:36 53° WNW 04:57:36 53° WNW 05:02:38 10° NNE
CZ-4B R/B 3.7 04:56:37 10° S 04:57:25 16° S 04:57:25 16° S
Cosmos 540 Rocket 4.3 05:01:40 32° NNW 05:01:40 32° NNW 05:05:07 10° N
USA 306 2.8 05:02:36 67° NW 05:02:42 67° NNW 05:06:55 10° NE
SJ-12 3.8 04:58:46 10° N 05:02:54 74° WNW 05:04:12 43° SSW
NOSS 3-2 (A) 3.3 05:00:28 23° SW 05:04:07 90° E 05:10:35 10° NE
Cosmos 1814 Rocket 4.0 05:03:50 50° W 05:04:10 51° WNW 05:09:12 10° NNE
Cosmos 2298 Rocket 4.0 05:00:29 20° NNW 05:04:14 88° ENE 05:09:34 10° SSE
Cosmos 1634 Rocket 4.3 05:00:15 10° S 05:06:19 66° E 05:12:27 10° NNE
Cosmos 2369 Rocket 3.7 05:01:40 10° N 05:06:42 32° NE 05:11:40 10° ESE
Cosmos 1125 Rocket 3.9 05:01:52 11° NNW 05:06:59 64° ENE 05:12:15 10° SSE
Envisat 4.1 05:02:14 10° NNE 05:07:07 45° E 05:11:58 10° S
COSMO-SKYMED 1 2.5 05:06:37 10° S 05:10:54 62° WSW 05:12:33 35° NW
CZ-4B R/B 2.6 05:08:18 10° NNE 05:11:59 89° ESE 05:15:47 10° SSW
PSLV R/B 4.1 05:08:54 10° SSE 05:13:01 73° ENE 05:17:11 10° N
CZ-4B R/B 4.4 05:09:31 10° N 05:13:34 44° WNW 05:13:34 44° WNW
USA 267 4.3 05:10:48 10° S 05:15:51 24° SW 05:16:23 23° WSW
Cosmos 2228 3.8 05:12:28 10° S 05:16:34 51° E 05:20:42 10° NNE
Cosmos 2278 Rocket 3.6 05:18:36 19° SW 05:18:36 19° SW 05:20:57 10° SSW
SL-16 R/B 2.1 05:11:35 10° SSW 05:17:14 83° WNW 05:22:57 10° NNE
NOSS 3-2 (C) 3.6 05:12:15 10° SSW 05:17:46 69° ESE 05:24:06 10° NE
CZ-2C R/B 3.1 05:19:17 18° SSW 05:20:24 20° SSW 05:23:28 10° SE
ERBS 3.8 05:18:11 12° SSW 05:20:51 34° SE 05:23:52 10° ENE
Cosmos 972 Rocket 4.2 05:15:20 10° SSW 05:21:40 77° WNW 05:27:19 10° NNE
Cosmos 2219 Rocket 4.1 05:23:37 12° NNW 05:23:37 12° NNW 05:24:47 10° NNW
ERS-2 2.0 05:20:01 10° S 05:23:37 62° WSW 05:25:10 31° NNW
CENTAUR R/B 2.5 05:19:11 10° SSW 05:24:59 82° SE 05:31:57 10° NE
Cosmos 2026 Rocket 4.0 05:18:48 10° N 05:25:12 88° W 05:31:36 10° S
Cosmos 2208 Rocket 4.5 05:23:25 28° WSW 05:25:32 39° WNW 05:30:37 10° N
Cosmos 2237 Rocket 3.0 05:24:59 29° WNW 05:25:38 29° NW 05:30:36 10° N
ATLAS 5 CENTAUR R/B 2.9 05:25:46 25° SW 05:25:46 25° SW 05:30:05 10° S
H-2A R/B 2.5 05:25:15 10° N 05:28:59 74° WNW 05:32:43 10° SSW
FALCON 9 DEB 2.9 05:30:00 34° SW 05:31:11 76° SE 05:34:19 10° ENE
Cosmos 1606 Rocket 3.8 05:28:43 10° S 05:32:59 71° E 05:37:20 10° NNE
Meteor PRIRODA 3.7 05:30:05 10° N 05:33:37 51° WNW 05:37:08 10° SSW
Cosmos 1626 Rocket 4.5 05:37:41 27° W 05:37:56 27° W 05:41:40 10° SW
Cosmos 1703 4.4 05:39:02 25° WSW 05:39:02 25° WSW 05:41:37 10° SSW
FALCON 9 DEB 2.7 05:38:25 32° WSW 05:39:41 79° NW 05:42:48 10° NE
Lacrosse 4 Rocket 2.4 05:40:48 26° WNW 05:41:40 28° NW 05:45:28 10° N
Cosmos 1300 2.6 05:41:11 10° SSW 05:44:57 60° W 05:48:44 10° N
Meteor 1-11 4.2 05:40:29 10° NNW 05:45:58 57° W 05:51:25 10° S
SAR-Lupe-4 3.9 05:43:51 10° S 05:47:16 41° W 05:50:19 12° NNW
Cosmos 1315 Rocket 2.7 05:45:39 10° SSW 05:49:31 64° WNW 05:53:25 10° N
Cosmos 2142 Rocket 4.5 05:44:08 10° S 05:50:27 82° W 05:56:44 10° N
[s.n.47389] 3.3 05:48:24 11° SW 05:50:42 47° SE 05:53:13 10° ENE
[s.n.47399] 3.3 05:48:25 11° SW 05:50:44 47° SE 05:53:15 10° ENE
[s.n.47393] 3.3 05:48:28 11° SW 05:50:46 47° SE 05:53:17 10° ENE
[s.n.47353] 3.3 05:48:32 11° SW 05:50:51 47° SE 05:53:22 10° ENE
[s.n.47355] 3.3 05:48:34 11° SW 05:50:54 47° SE 05:53:26 10° ENE
[s.n.47365] 3.3 05:48:37 11° SW 05:50:57 47° SE 05:53:29 10° ENE
[s.n.47383] 3.3 05:48:42 11° SW 05:51:02 47° SE 05:53:33 10° ENE
[s.n.47400] 3.3 05:48:40 11° SW 05:51:03 48° SE 05:53:37 10° ENE
[s.n.47378] 3.3 05:48:48 11° SW 05:51:07 47° SE 05:53:39 10° ENE
[s.n.47395] 3.3 05:48:51 11° SW 05:51:11 47° SE 05:53:41 10° ENE
[s.n.47379] 3.3 05:48:57 11° SW 05:51:16 47° SE 05:53:48 10° ENE
deb Chang Zheng 4 4.2 05:47:32 10° N 05:51:17 31° WNW 05:55:00 10° SW
[s.n.47370] 3.3 05:48:57 11° SW 05:51:18 47° SE 05:53:48 10° ENE
[s.n.47351] 3.3 05:48:56 11° SW 05:51:21 48° SE 05:53:55 10° ENE
[s.n.47394] 3.3 05:49:03 11° SW 05:51:24 48° SE 05:53:55 10° ENE
[s.n.47354] 3.3 05:49:07 11° SW 05:51:28 48° SE 05:53:58 10° ENE
[s.n.47360] 3.3 05:49:09 11° SW 05:51:29 48° SE 05:54:00 10° ENE
[s.n.47369] 3.3 05:49:13 11° SW 05:51:34 48° SE 05:54:05 10° ENE
[s.n.47406] 3.3 05:49:15 11° SW 05:51:37 48° SE 05:54:08 10° ENE
[s.n.47384] 3.3 05:49:18 11° SW 05:51:40 48° SE 05:54:11 10° ENE
[s.n.47356] 3.3 05:49:21 11° SW 05:51:43 48° SE 05:54:14 10° ENE
[s.n.47407] 3.3 05:49:25 11° SW 05:51:46 48° SE 05:54:17 10° ENE
[s.n.47385] 3.3 05:49:23 11° SW 05:51:48 49° SE 05:54:22 10° ENE
[s.n.47358] 3.3 05:49:32 11° SW 05:51:54 48° SE 05:54:25 10° ENE
[s.n.47398] 3.3 05:49:33 11° SW 05:51:56 48° SE 05:54:27 10° ENE
[s.n.47361] 3.3 05:49:37 11° SW 05:51:59 48° SE 05:54:31 10° ENE
[s.n.47392] 3.3 05:49:39 11° SW 05:52:01 48° SE 05:54:33 10° ENE
[s.n.47382] 3.3 05:49:43 11° SW 05:52:05 49° SE 05:54:37 10° ENE
[s.n.47359] 3.3 05:49:43 11° SW 05:52:08 49° SE 05:54:41 10° ENE
[s.n.47401] 3.3 05:49:51 11° SW 05:52:13 49° SE 05:54:44 10° ENE
[s.n.47380] 3.3 05:49:47 11° SW 05:52:14 49° SE 05:54:48 10° ENE
[s.n.47386] 3.2 05:49:57 11° SW 05:52:19 49° SE 05:54:51 10° ENE
[s.n.47408] 3.3 05:49:55 11° SW 05:52:22 49° SE 05:54:56 10° ENE
[s.n.47396] 3.2 05:50:02 11° SW 05:52:26 49° SE 05:54:57 10° ENE
[s.n.47391] 3.2 05:50:04 11° SW 05:52:27 49° SE 05:55:00 10° ENE
[s.n.47402] 3.2 05:50:08 11° SW 05:52:31 49° SE 05:55:03 10° ENE
[s.n.47404] 3.2 05:50:11 11° SW 05:52:35 49° SE 05:55:07 10° ENE
[s.n.47403] 3.2 05:50:14 11° SW 05:52:38 49° SE 05:55:10 10° ENE
[s.n.47381] 3.2 05:50:17 11° SW 05:52:41 49° SE 05:55:13 10° ENE
[s.n.47372] 3.2 05:50:21 11° SW 05:52:45 49° SE 05:55:16 10° ENE
[s.n.47405] 3.2 05:50:23 11° SW 05:52:47 50° SE 05:55:19 10° ENE
[s.n.47368] 3.2 05:50:28 11° SW 05:52:52 50° SE 05:55:24 10° ENE
[s.n.47350] 3.2 05:50:30 11° SW 05:52:55 50° SE 05:55:26 10° ENE
[s.n.47349] 3.2 05:50:28 11° SW 05:52:57 50° SE 05:55:31 10° ENE
[s.n.47367] 3.2 05:50:34 11° SW 05:53:00 50° SE 05:55:33 10° ENE
[s.n.47373] 3.2 05:50:34 11° SW 05:53:03 50° SE 05:55:38 10° ENE
[s.n.47377] 3.2 05:50:38 11° SW 05:53:06 51° SE 05:55:41 10° ENE
[s.n.47371] 3.2 05:50:40 11° SW 05:53:09 51° SE 05:55:44 10° ENE
[s.n.47362] 3.2 05:50:43 11° SW 05:53:12 51° SE 05:55:47 10° ENE
[s.n.47363] 3.2 05:50:46 11° SW 05:53:15 51° SE 05:55:51 10° ENE
[s.n.47374] 3.2 05:50:52 11° SW 05:53:19 51° SE 05:55:53 10° ENE
[s.n.47357] 3.2 05:50:57 11° SW 05:53:23 51° SE 05:55:56 10° ENE
[s.n.47390] 3.2 05:51:01 11° SW 05:53:27 51° SE 05:55:59 10° ENE
[s.n.47387] 3.2 05:51:03 11° SW 05:53:29 51° SE 05:56:01 10° ENE
[s.n.47375] 3.2 05:51:04 11° SW 05:53:30 51° SE 05:56:02 10° ENE
[s.n.47376] 3.2 05:51:02 10° SW 05:53:32 51° SE 05:56:07 10° ENE
[s.n.47366] 3.2 05:51:13 11° SW 05:53:40 51° SE 05:56:12 10° ENE
[s.n.47352] 3.2 05:51:15 11° SW 05:53:43 51° SE 05:56:16 10° ENE
[s.n.47364] 3.2 05:51:18 11° SW 05:53:46 51° SE 05:56:20 10° ENE
[s.n.47388] 3.2 05:51:21 10° SW 05:53:50 51° SE 05:56:23 10° ENE
[s.n.47397] 3.2 05:51:28 11° SW 05:53:55 51° SE 05:56:28 10° ENE
Cosmos 2297 4.1 05:50:13 10° NW 05:55:38 44° WSW 06:01:02 10° S
MOS 1 Rocket 4.0 05:52:19 10° SSW 05:56:37 31° W 06:00:43 10° NNW
ATLAS 3B R/B 4.4 05:52:25 10° S 05:58:13 35° ESE 06:04:07 10° NE
Cosmos 1346 Rocket 3.3 05:55:16 10° NNW 05:58:57 37° W 06:02:38 10° SSW
USA 238 DEB 3.8 05:53:34 10° WSW 05:59:59 53° NW 06:06:45 10° NNE
USA 238 3.8 05:53:40 10° WSW 06:00:05 53° NW 06:06:51 10° NNE
Cosmos 1758 Rocket 4.2 05:59:44 10° NNW 06:03:49 35° W 06:07:51 10° SSW
NOAA 12 4.3 05:59:53 10° NNE 06:05:12 77° ESE 06:10:30 10° S
Cosmos 1689 Rocket 3.3 06:03:45 10° SSW 06:06:02 21° W 06:07:23 16° WNW
ATLAS CENTAUR R/B 2.8 06:07:56 14° WNW 06:09:00 15° NW 06:11:16 10° N
Cosmos 1441 Rocket 4.1 06:06:40 10° N 06:10:33 53° ENE 06:14:21 10° SSE
TIMED 4.5 06:06:30 10° SSW 06:10:52 86° WNW 06:15:16 10° NNE
BREEZE M DEB (TANK) 1.8 06:11:50 11° WSW 06:13:58 70° NNW 06:18:52 10° ENE
SL-19 R/B 3.9 06:11:40 10° N 06:15:20 70° WNW 06:18:31 10° SSW
Cosmos 1726 Rocket 3.7 06:13:08 10° SSW 06:17:17 48° WNW 06:21:30 10° N
MOS 1-B 4.3 06:12:35 10° NNE 06:18:22 75° WNW 06:24:07 10° SSW
YAOGAN 6 3.5 06:15:58 10° N 06:19:08 27° WNW 06:22:18 10° SW
Cosmos 2058 Rocket 3.0 06:14:52 10° SSW 06:19:16 77° W 06:23:44 10° N
Cosmos 1892 2.6 06:15:37 10° NNW 06:19:27 75° W 06:23:18 10° S
Cosmos 1184 Rocket 4.2 06:16:49 10° N 06:19:55 40° ENE 06:23:01 10° SSE
Spot 2 4.0 06:16:01 10° N 06:19:59 57° WNW 06:24:02 10° SSW
Cosmos 1603 3.8 06:14:48 10° SSW 06:20:25 86° ESE 06:26:06 10° NNE
GEOS 3 Rocket 3.9 06:16:07 10° SSE 06:21:21 54° WSW 06:26:39 10° NW
FALCON 9 DEB 3.6 06:19:09 10° W 06:22:03 35° NNW 06:24:56 10° NE
USA 215 4.4 06:18:45 10° ENE 06:24:10 29° N 06:29:36 10° NW
USA 307 4.0 06:20:53 10° WNW 06:24:33 28° NNW 06:28:14 10° NE
CZ-4B DEB 4.4 06:23:58 10° N 06:29:20 51° WNW 06:34:41 10° SW
Cosmos 2279 Rocket 4.2 06:23:21 10° SSW 06:29:20 48° WNW 06:35:24 10° N
In-Cosmos 22 Rocket 4.2 06:24:34 10° NNW 06:29:54 57° W 06:35:06 10° S
FALCON 9 DEB 3.7 06:27:54 10° W 06:30:50 34° NNW 06:33:45 10° NE
USA 305 4.1 06:27:17 10° WNW 06:30:53 26° NNW 06:34:31 10° NE
Cosmos 2292 Rocket 3.4 06:28:41 10° NNW 06:31:33 36° W 06:34:52 10° SSW
Cosmos 1408 2.5 06:29:36 10° NNW 06:33:11 70° W 06:36:47 10° S
USA 308 4.1 06:29:57 10° WNW 06:33:37 27° NNW 06:37:17 10° NE
SL-4 R/B 3.1 06:31:32 10° WNW 06:34:58 29° N 06:38:39 10° NE
Cosmos 2098 Rocket 4.4 06:31:01 10° NNW 06:35:17 24° W 06:38:53 10° SW
Okean O Rocket 1.5 06:31:01 10° N 06:35:23 71° WNW 06:39:41 10° SSW
